Location: Newark
(13.6797°N, 8.5297°E)
Time: 03:27:38
(UTC+00:00)

Altair - Pass Details

Date: 02 February 2020
Orbit: 1502 x 1682 km, 47.2° (Epoch: 17 February)

Event Time Altitude Azimuth Distance (km) Brightness Sun altitude
Rises 12:51:08 0° 325° (NW) 4,925 10.0 54.7°
Reaches altitude 10° 12:54:30 10° 331° (NNW) 3,928 9.6 54.3°
Maximum altitude 13:04:12 51° 45° (NE) 1,993 8.4 53.0°
Drops below altitude 10° 13:13:35 10° 118° (ESE) 3,816 9.6 51.6°
Sets 13:16:46 0° 123° (ESE) 4,776 10.1 51.1°
